Simultaneous Nadir Overpasses (SNOs) Predictions

Prediction of SNOs between LANDSAT-8 and METOP-A Satellite Orbit:

Table of predicted SNOs for the next 14.0 days since TLE Epoch: 3/27/2021
Index Date (LANDSAT-8) Time (LANDSAT-8) Lat,Lon (LANDSAT-8) SZA (LANDSAT-8 ) Date (METOP-A) Time (METOP-A) Lat,Lon (METOP-A) SZA (METOP-A ) Distance(km) Time Diff (sec)
1 03/27/2021 09:40:47 81.42, 79.40 80.98 03/27/2021 09:40:02 81.41, 79.57 80.98 3.00 45
2 03/27/2021 10:30:14 -81.41,-113.07 99.05 03/27/2021 10:30:42 -81.41,-112.94 99.03 2.22 28
3 03/30/2021 05:15:01 81.41, 145.64 79.89 03/30/2021 05:14:23 81.42, 145.72 79.89 1.67 38
4 03/30/2021 06:04:28 -81.40, -46.79 100.14 03/30/2021 06:05:03 -81.41, -46.77 100.12 1.04 35
5 04/02/2021 00:49:15 81.42,-147.77 78.85 04/02/2021 00:48:44 81.41,-147.77 78.83 0.27 31
6 04/02/2021 01:38:42 -81.41, 19.83 101.18 04/02/2021 01:39:24 -81.41, 19.78 101.17 1.12 42
7 04/04/2021 20:23:29 81.42, -81.22 77.81 04/04/2021 20:23:05 81.41, -81.28 77.79 1.63 24
8 04/04/2021 21:12:57 -81.40, 86.02 102.26 04/04/2021 21:13:46 -81.41, 85.90 102.24 2.28 49
9 04/07/2021 15:57:43 81.41, -15.11 76.73 04/07/2021 15:57:26 81.42, -15.20 76.72 2.03 17



Historial Predications of SNOs between LANDSAT-8 and METOP-A
